Wind_Speed
9 9 9 8 8 8 8 8 8 9 10 10 11 13 14 15 16 17 19 20 21 22 23 24 25 25 26 26 27 27 27 28 28 28 29 30 31 31 31 31 31 31 30 30
9 8 8 9 9 9 9 9 9 10 10 11 12 14 15 15 16 18 19 21 22 23 23 24 25 26 26 27 28 28 28 28 29 29 30 30 31 31 31 31 31 30 29 28
8 9 9 9 9 10 10 10 10 10 11 12 13 14 15 16 17 18 20 21 22 23 24 25 26 26 27 28 28 28 29 29 30 30 30 31 31 31 31 31 30 29 28 28
8 9 9 10 10 11 10 11 10 11 11 12 13 14 15 16 17 18 20 21 22 23 24 25 26 27 28 28 28 29 29 29 30 31 31 31 31 31 31 30 30 29 28 27
8 8 9 11 10 10 10 10 11 11 11 12 13 14 15 16 17 18 20 21 22 24 25 26 27 27 28 28 29 29 29 30 31 31 31 32 32 31 31 30 29 28 28 26
10 9 9 11 10 9 10 10 11 11 12 13 13 14 15 16 17 18 20 21 22 24 25 26 27 27 28 29 30 30 30 30 31 32 32 32 32 31 30 29 29 28 27 26
11 11 11 12 11 10 10 11 11 12 12 13 14 15 15 16 17 18 20 21 22 24 25 27 28 28 28 29 30 30 31 31 31 32 32 32 32 31 30 29 29 28 27 27
12 11 13 13 12 11 11 12 12 12 13 13 14 15 16 17 18 19 20 21 22 24 26 27 28 28 28 29 30 31 31 31 32 32 33 33 32 31 30 29 29 28 27 27
13 14 14 13 13 13 13 13 13 13 14 14 14 15 16 17 18 19 20 21 22 24 26 27 27 28 29 30 31 31 31 31 32 32 33 33 33 31 30 29 29 28 28 27
15 16 15 15 15 14 14 14 14 15 15 15 15 16 17 18 19 19 20 21 22 24 26 27 27 28 29 30 31 31 31 32 32 32 33 33 33 32 30 30 29 28 28 28
17 17 17 17 16 16 16 16 17 17 17 17 17 17 18 19 19 20 21 22 23 24 26 27 28 29 30 31 32 32 32 32 32 32 33 33 33 32 30 30 29 29 28 28
19 19 18 18 18 18 18 18 18 18 18 18 18 19 19 20 20 21 21 22 23 24 26 27 28 29 31 31 32 32 32 33 33 33 33 33 33 32 31 30 29 29 28 27
19 19 19 19 19 19 19 19 19 20 20 19 20 20 20 21 22 22 22 23 24 25 26 27 29 30 31 31 32 32 33 33 33 33 33 33 33 32 31 30 29 28 27 26
20 20 20 20 20 20 20 21 21 21 21 21 22 22 22 22 23 23 24 24 25 25 26 28 29 30 31 32 32 32 33 33 33 32 32 33 33 32 30 29 29 28 27 26
21 21 21 21 21 22 22 22 22 22 22 23 24 24 24 24 24 25 25 25 26 27 27 28 30 31 31 32 32 32 33 34 33 32 32 33 32 31 30 29 28 27 27 26
22 22 23 23 23 23 23 23 24 24 24 25 25 25 26 26 27 27 27 27 28 29 28 29 30 31 32 32 32 32 33 33 33 32 33 33 32 31 30 29 27 27 26 25
23 23 23 24 24 24 24 25 26 26 26 27 27 28 28 29 29 29 31 30 31 31 30 31 31 32 32 33 34 34 33 33 32 32 32 32 32 31 30 29 27 26 26 25
24 25 25 26 26 26 27 28 28 28 29 29 30 30 31 32 33 34 34 33 33 33 33 32 32 33 33 34 35 35 33 32 32 32 32 32 32 31 29 28 27 26 25 25
27 28 28 28 29 29 30 30 31 31 31 31 33 34 35 36 36 36 37 36 34 34 34 35 35 35 35 35 35 34 33 32 32 32 32 31 31 30 29 28 26 25 24 24
30 30 31 31 32 32 32 33 33 34 34 35 36 37 37 38 38 39 39 37 36 36 37 37 37 37 36 36 35 35 34 33 33 32 31 30 29 29 28 26 25 25 24 23
32 33 33 34 34 34 34 35 35 36 37 37 38 39 39 39 40 40 40 39 39 39 39 39 39 38 38 37 36 35 35 34 33 32 30 29 28 28 27 26 25 24 23 22
34 35 35 35 36 37 37 37 38 38 39 40 41 42 42 42 42 42 42 41 41 41 41 41 40 40 39 38 37 36 35 34 32 31 30 29 28 27 26 25 24 23 22 21
36 36 37 38 38 38 39 40 40 41 41 43 44 45 46 46 46 45 44 43 43 43 43 43 42 40 40 39 38 37 36 34 33 31 30 29 28 27 25 24 23 22 21 20
39 40 40 40 41 41 42 43 44 45 45 46 47 48 47 47 46 45 44 44 43 43 43 43 42 41 40 39 38 37 35 34 33 31 29 28 28 26 25 23 22 21 21 20
42 42 43 43 44 44 45 45 46 46 47 47 48 48 48 48 48 47 46 45 45 44 44 43 42 41 40 39 38 36 35 34 33 31 29 28 27 26 25 23 22 21 20 19
44 44 45 45 45 46 46 47 47 47 47 47 47 47 48 48 48 48 47 46 46 45 44 43 42 41 40 39 37 36 34 34 33 31 29 28 26 26 25 23 22 21 20 19
46 46 46 47 47 47 47 47 48 48 48 48 48 47 47 47 47 47 47 46 46 46 45 44 42 41 40 38 37 35 34 33 32 30 29 28 27 25 25 24 22 21 20 19
Wind_Direction
264 271 276 279 284 287 287 291 298 301 305 310 318 324 329 332 336 340 342 343 344 345 345 345 345 344 343 342 341 340 338 336 334 333 331 329 328 327 326 323 320 317 313 309
270 273 276 278 282 284 286 289 292 297 300 307 315 321 326 330 334 338 341 343 345 345 345 345 344 344 343 343 342 341 340 339 336 334 333 332 331 331 329 327 325 322 318 313
271 275 277 283 282 284 286 288 293 297 298 305 312 318 323 327 332 336 339 342 344 345 345 345 346 346 344 344 343 342 341 340 338 336 335 334 334 334 333 331 330 328 324 319
269 274 279 278 281 285 288 288 292 295 298 303 310 316 321 326 331 334 338 341 342 344 345 346 347 347 346 345 345 344 342 342 341 340 338 337 336 336 336 335 335 333 330 327
267 275 280 284 285 286 287 288 291 295 298 304 311 315 320 326 330 333 336 339 341 343 345 346 346 346 346 347 346 345 344 343 343 342 341 340 339 339 338 338 338 337 336 333
264 266 272 280 285 286 288 289 292 295 299 306 310 315 320 325 328 332 334 337 340 343 345 346 346 346 346 347 347 347 346 345 345 345 344 343 342 341 341 340 340 341 340 338
262 269 273 277 283 287 291 290 292 294 300 306 310 314 319 324 327 330 333 336 339 342 344 345 346 346 346 346 347 347 347 347 347 346 346 345 344 344 343 343 342 343 342 341
259 266 267 275 281 284 286 289 291 294 298 304 309 313 317 321 325 328 331 334 337 341 344 345 345 346 346 346 347 347 348 348 347 347 347 346 346 346 346 345 345 345 345 343
256 262 266 271 277 280 283 288 292 295 298 303 307 311 315 319 323 326 329 332 335 339 341 343 345 345 346 346 346 347 347 348 348 348 348 348 347 346 347 347 347 347 347 347
257 261 266 270 275 279 283 288 292 295 298 302 305 309 313 317 320 323 326 329 332 336 339 340 342 344 345 345 346 346 347 347 347 348 348 348 348 347 348 348 348 348 348 349
259 263 267 270 275 278 282 286 290 293 297 300 303 307 310 314 318 320 324 326 329 332 335 337 339 341 342 344 345 346 346 346 346 347 348 348 348 348 348 348 348 348 349 350
261 264 267 271 274 277 281 285 288 291 294 298 302 305 308 312 314 317 320 323 325 329 332 334 336 339 341 343 344 344 345 345 345 345 347 348 348 348 348 348 347 347 348 349
264 267 270 271 273 277 280 283 285 289 293 296 299 302 305 309 311 313 316 319 322 325 329 332 334 336 339 341 342 343 344 344 344 345 346 347 347 347 347 347 347 347 348 348
266 268 270 273 275 278 280 282 285 287 290 293 296 299 302 306 309 311 313 315 318 322 325 328 330 332 335 337 339 341 342 343 343 344 345 346 346 346 346 346 346 346 346 347
266 268 271 273 275 277 280 282 286 287 288 292 294 296 300 303 306 308 309 312 315 318 321 324 326 328 331 333 335 338 339 340 341 341 342 344 345 345 344 344 345 345 345 345
268 270 272 274 276 278 280 282 285 288 290 291 292 295 298 301 303 304 305 307 311 315 317 320 322 325 327 328 330 332 334 336 337 337 338 340 342 343 343 343 343 343 345 346
267 269 271 273 275 277 279 281 283 286 289 290 291 293 295 297 300 302 304 306 308 311 313 315 318 321 323 325 326 328 330 331 332 333 334 336 338 340 340 341 340 341 343 344
267 269 271 274 276 277 279 280 282 284 284 286 288 291 292 294 296 299 301 302 304 306 308 311 314 316 318 320 322 324 325 327 328 329 330 331 334 335 337 338 339 338 339 340
267 269 270 272 274 276 277 278 280 282 282 283 285 287 290 291 292 296 299 298 298 301 303 307 310 311 312 315 318 320 322 322 323 324 326 327 328 330 332 334 336 337 338 338
267 268 270 272 273 275 276 277 278 280 281 283 284 287 289 290 293 294 294 294 295 297 300 303 306 307 309 311 313 315 317 317 318 319 321 323 324 326 328 330 332 334 335 336
267 269 270 272 273 274 276 277 278 279 281 283 285 286 287 289 291 292 292 291 293 295 297 299 301 303 305 307 308 309 311 312 313 315 316 318 319 321 323 325 326 328 330 331
268 270 271 272 274 274 275 276 277 279 280 283 284 286 287 288 290 291 291 292 293 294 295 297 298 299 301 302 304 305 306 308 309 310 311 313 314 316 318 319 321 323 325 326
269 271 271 272 274 276 277 277 277 279 280 282 284 286 287 288 289 290 291 291 292 293 293 295 295 296 298 299 300 301 301 302 303 305 306 307 308 310 312 314 315 317 319 320
272 273 274 275 276 276 277 279 280 280 281 283 285 286 287 288 288 289 290 290 290 291 292 292 292 293 295 296 296 297 297 297 298 299 300 302 303 304 306 307 309 312 314 316
275 276 277 277 278 278 279 280 281 282 283 284 285 286 287 289 289 288 289 289 289 290 290 290 290 290 291 291 291 291 292 293 294 294 294 296 298 299 300 301 302 305 308 310
277 278 279 279 280 281 282 282 283 284 285 285 286 287 288 289 289 288 288 288 288 289 289 288 288 288 287 287 287 287 287 287 288 289 289 290 294 296 297 297 298 300 301 303
278 279 280 280 281 282 283 283 284 285 285 286 286 287 287 288 288 288 287 287 288 288 288 287 286 286 285 284 282 281 281 282 283 284 286 287 289 291 291 292 293 295 296 296
Height
5860 5859 5859 5858 5858 5857 5857 5856 5856 5854 5852 5850 5848 5845 5842 5839 5836 5832 5828 5824 5819 5814 5809 5804 5799 5794 5788 5783 5777 5771 5765 5760 5754 5748 5743 5737 5731 5724 5718 5712 5706 5700 5694 5689
5857 5856 5856 5855 5855 5854 5854 5853 5852 5851 5849 5847 5845 5842 5840 5836 5833 5829 5825 5821 5816 5812 5806 5801 5796 5790 5785 5779 5773 5767 5761 5755 5749 5743 5737 5731 5725 5718 5712 5705 5699 5692 5686 5681
5855 5854 5853 5853 5852 5851 5851 5850 5849 5848 5847 5844 5842 5839 5837 5833 5830 5826 5822 5818 5814 5809 5803 5798 5793 5787 5781 5775 5769 5763 5757 5751 5745 5739 5732 5726 5719 5712 5705 5699 5692 5686 5679 5673
5851 5852 5851 5852 5849 5848 5847 5846 5845 5844 5842 5841 5839 5836 5833 5830 5827 5823 5819 5815 5810 5806 5800 5795 5789 5784 5778 5772 5766 5760 5753 5747 5741 5734 5727 5721 5714 5707 5700 5693 5686 5680 5673 5667
5848 5849 5848 5848 5846 5845 5844 5843 5842 5840 5839 5837 5835 5833 5830 5827 5824 5820 5816 5812 5807 5803 5797 5792 5786 5780 5774 5768 5762 5756 5750 5743 5737 5730 5723 5716 5709 5702 5695 5688 5681 5675 5668 5662
5845 5845 5846 5846 5843 5842 5842 5840 5839 5837 5835 5834 5832 5830 5827 5823 5820 5817 5813 5809 5804 5799 5794 5789 5783 5777 5771 5765 5759 5753 5746 5740 5733 5726 5719 5712 5705 5698 5691 5684 5677 5670 5664 5657
5841 5841 5842 5841 5839 5839 5840 5838 5835 5833 5832 5830 5828 5826 5823 5820 5817 5813 5810 5806 5801 5796 5791 5786 5780 5774 5768 5762 5756 5749 5743 5736 5729 5723 5716 5708 5701 5694 5687 5680 5673 5666 5660 5654
5837 5838 5840 5836 5835 5836 5835 5833 5831 5830 5828 5826 5824 5822 5819 5816 5813 5810 5806 5802 5798 5793 5788 5783 5777 5771 5765 5759 5753 5746 5740 5733 5726 5719 5712 5705 5698 5691 5684 5677 5670 5663 5657 5650
5834 5835 5833 5832 5831 5831 5830 5829 5827 5826 5824 5822 5820 5818 5815 5812 5809 5806 5802 5798 5794 5790 5785 5779 5774 5768 5762 5756 5749 5743 5736 5730 5723 5716 5709 5702 5695 5688 5681 5674 5667 5661 5654 5647
5829 5828 5828 5827 5826 5826 5825 5824 5823 5821 5820 5818 5816 5813 5811 5808 5805 5802 5798 5795 5790 5786 5781 5776 5770 5765 5759 5752 5746 5739 5733 5726 5720 5713 5706 5699 5692 5685 5678 5671 5665 5658 5652 5645
5823 5823 5823 5822 5822 5821 5820 5819 5818 5816 5815 5813 5811 5809 5806 5804 5801 5798 5794 5790 5786 5782 5777 5772 5767 5761 5755 5749 5742 5736 5730 5723 5717 5710 5703 5696 5689 5682 5675 5669 5662 5656 5650 5643
5818 5818 5818 5817 5816 5816 5815 5814 5813 5811 5810 5808 5806 5804 5801 5799 5796 5793 5790 5786 5782 5778 5773 5768 5763 5757 5751 5745 5739 5733 5726 5720 5713 5707 5700 5693 5686 5679 5673 5667 5660 5654 5648 5642
5812 5812 5812 5811 5811 5810 5809 5808 5807 5806 5804 5803 5801 5799 5796 5794 5791 5788 5785 5781 5777 5773 5769 5764 5759 5753 5747 5741 5735 5729 5723 5716 5710 5703 5697 5690 5683 5677 5670 5665 5658 5652 5646 5640
5805 5806 5805 5805 5805 5804 5803 5802 5801 5800 5798 5797 5795 5793 5790 5788 5785 5782 5779 5776 5772 5768 5764 5759 5754 5748 5743 5737 5731 5725 5719 5713 5707 5700 5694 5688 5681 5674 5668 5662 5656 5650 5644 5639
5799 5799 5799 5798 5798 5797 5796 5795 5794 5793 5792 5790 5788 5786 5784 5782 5779 5776 5773 5770 5766 5762 5758 5753 5749 5743 5738 5732 5727 5721 5715 5709 5703 5697 5691 5685 5678 5672 5666 5660 5654 5648 5643 5637
5792 5792 5792 5791 5791 5790 5789 5788 5787 5786 5785 5783 5781 5779 5777 5775 5773 5770 5766 5763 5760 5756 5752 5747 5743 5738 5733 5727 5722 5716 5711 5705 5699 5693 5687 5681 5675 5669 5663 5658 5652 5647 5641 5636
5785 5785 5784 5784 5783 5783 5782 5781 5780 5779 5777 5776 5774 5772 5770 5768 5765 5762 5759 5756 5752 5748 5744 5740 5736 5731 5726 5721 5716 5711 5705 5700 5694 5689 5683 5678 5672 5666 5661 5655 5650 5644 5639 5634
5777 5777 5776 5776 5776 5775 5774 5773 5772 5770 5769 5768 5766 5764 5762 5760 5757 5754 5751 5748 5744 5740 5736 5733 5729 5724 5719 5715 5709 5704 5699 5694 5689 5684 5679 5674 5668 5663 5658 5652 5647 5642 5637 5632
5768 5768 5768 5767 5767 5766 5765 5764 5763 5762 5760 5759 5757 5755 5753 5750 5748 5745 5742 5739 5735 5732 5728 5724 5720 5716 5712 5707 5702 5697 5693 5688 5684 5679 5674 5669 5664 5659 5654 5649 5644 5639 5634 5630
5759 5759 5759 5758 5758 5757 5756 5755 5754 5752 5751 5749 5747 5746 5743 5740 5738 5735 5732 5729 5726 5722 5719 5715 5711 5707 5703 5699 5694 5690 5686 5681 5677 5673 5668 5664 5659 5655 5650 5645 5640 5636 5631 5627
5750 5749 5749 5748 5747 5747 5745 5744 5743 5742 5740 5738 5737 5735 5732 5730 5727 5724 5721 5719 5715 5712 5709 5705 5702 5698 5694 5690 5686 5682 5678 5674 5670 5666 5662 5658 5654 5649 5645 5641 5637 5632 5628 5624
5739 5739 5738 5737 5736 5735 5734 5733 5732 5730 5729 5727 5725 5723 5720 5718 5715 5712 5709 5707 5704 5700 5697 5694 5691 5687 5684 5680 5676 5673 5669 5665 5662 5658 5655 5651 5647 5644 5640 5636 5632 5628 5625 5621
5728 5727 5727 5726 5725 5724 5722 5721 5720 5718 5716 5714 5712 5710 5707 5705 5702 5700 5697 5694 5691 5688 5685 5682 5679 5676 5673 5669 5666 5663 5660 5656 5653 5650 5647 5644 5641 5637 5634 5631 5627 5624 5621 5617
5716 5715 5714 5714 5712 5711 5710 5708 5707 5705 5703 5701 5698 5696 5694 5691 5689 5686 5683 5681 5678 5675 5672 5669 5667 5664 5661 5658 5655 5652 5649 5647 5644 5641 5639 5636 5633 5630 5627 5625 5622 5619 5616 5613
5703 5702 5701 5700 5699 5698 5696 5695 5693 5691 5689 5686 5684 5681 5679 5676 5674 5671 5668 5666 5663 5661 5658 5656 5653 5650 5648 5645 5643 5641 5638 5636 5634 5632 5630 5628 5626 5623 5620 5618 5615 5613 5610 5608
5689 5688 5687 5686 5684 5683 5681 5679 5677 5675 5673 5671 5669 5666 5663 5660 5658 5655 5653 5650 5648 5646 5643 5641 5638 5636 5634 5632 5630 5628 5627 5625 5623 5622 5620 5619 5617 5615 5613 5611 5609 5607 5605 5603
5674 5673 5672 5670 5669 5667 5665 5663 5662 5660 5657 5655 5653 5650 5648 5645 5642 5640 5637 5635 5632 5630 5627 5625 5623 5622 5620 5618 5616 5615 5614 5613 5612 5611 5610 5610 5608 5607 5605 5603 5602 5600 5599 5597